Regional Weather Roundup
Issued by NWS

Home | Current Version | Previous Version | Graphics & Text | Print | Product List | Glossary On
Versions: 1 2 3 4 5 6 7 8 9 10 11 12 13 14 15 16 17 18 19 20 21 22 23 24 25 26 27 28 29 30 31 32 33 34 35 36 37 38 39 40 41 42 43 44 45 46 47 48 49 50
000
ASUS45 KCYS 211310
RWRWY

WYOMING REGIONAL WEATHER ROUNDUP
NATIONAL WEATHER SERVICE CHEYENNE WY
600 AM MST SUN JAN 21 2018

NOTE:  "FAIR" INDICATES FEW OR NO CLOUDS BELOW 12,000 FEET
WITH NO SIGNIFICANT WEATHER AND/OR OBSTRUCTIONS TO VISIBILITY.

WYZ001-211400-
YELLOWSTONE NATIONAL PARK

CITY           SKY/WX    TMP DP  RH WIND       PRES   REMARKS
LK YELLOWSTONE   N/A    -14 -18  82 CALM      29.98R
W YELLOWSTONE  NOT AVBL

$$
WYZ002>013-054>058-071-098>099-211400-
NORTHERN WYOMING

CITY           SKY/WX    TMP DP  RH WIND       PRES   REMARKS
JACKSON        FAIR       8   4  83 N6        29.99R WCI  -2
CODY           FAIR      22  15  75 CALM      29.99R
GREYBULL       FAIR      21  19  92 CALM      30.01R
WORLAND        CLOUDY    20  18  92 CALM      29.99S
SHERIDAN       FAIR      28  18  66 W6        30.00R WCI  22
BUFFALO        FAIR      25  13  60 N7        29.96S WCI  17
GILLETTE       CLOUDY    24  18  77 W10       29.96R WCI  14
HULETT         CLOUDY    25  23  93 S5        29.98R WCI  19
NEWCASTLE      FAIR      27  25  93 N6        29.97R WCI  20

$$
WYZ014>020-022>026-101>103-211400-
CENTRAL WYOMING

CITY           SKY/WX    TMP DP  RH WIND       PRES   REMARKS
BIG PINEY      FLURRIES  18  13  80 N14       29.90R WCI   4
PINEDALE       LGT SNOW  18  14  86 NW5       29.90R WCI  11
DUBOIS         LGT SNOW  16  14  93 CALM      29.90R
LANDER         LGT SNOW  22  19  89 W6        29.95R FOG     WCI  14
RIVERTON       CLOUDY    21  16  81 W8        29.96R WCI  11
CASPER         LGT SNOW  21  20  96 N12       29.94R FOG     WCI   9
DOUGLAS        LGT SNOW  24  22  91 N7        29.93S FOG     WCI  16

$$
WYZ021-027>030-104>119-211400-
SOUTHERN WYOMING

CITY           SKY/WX    TMP DP  RH WIND       PRES   REMARKS
EVANSTON       CLOUDY    12   8  84 W7        29.95R WCI   1
FORT BRIDGER   CLOUDY    17  14  90 W14       29.95R WCI   2
ROCK SPRINGS   CLOUDY    19  14  81 N12       29.88R WCI   7
DIXON          LGT SNOW  23  19  85 NE14G22   29.75S WCI  10
RAWLINS        LGT SNOW  18  15  88 N18       29.82R FOG     WCI   2
SARATOGA       LGT SNOW  21  21 100 CALM      29.76R
LARAMIE        LGT SNOW  19  15  84 NE3       29.77R FOG
CHEYENNE       LGT SNOW  22  21  96 NE10      29.80S FOG     WCI  11
TORRINGTON     LGT SNOW  27  26  96 NE17      29.89R FOG     WCI  14

$$



USA.gov is the U.S. government's official web portal to all federal, state and local government web resources and services.